This is the latest recevied weather packets stored in our database for station/object S56IAR-13. If no packets are shown the sender has not sent any weather packets the latest 10 day(s).
| Time | Temp. | Humidity | Pressure | Rain* | Wind** | Luminosity | Snow |
|---|---|---|---|---|---|---|---|
| 1777743903 | 12.78° C | 80% | 966.7 hPa | 0 mm | - | 12 W/m² | - |
| 1777741805 | 14.44° C | 75% | 966.8 hPa | 0 mm | - | 26 W/m² | - |
| 1777740604 | 15.56° C | 69% | 966.6 hPa | 0 mm | - | 31 W/m² | - |
| 1777739405 | 18.89° C | 56% | 966.6 hPa | 0 mm | - | 36 W/m² | - |
| 1777738505 | 22.22° C | 39% | 966.6 hPa | 0 mm | - | 155 W/m² | - |
| 1777736403 | 22.78° C | 37% | 966.9 hPa | 0 mm | - | 254 W/m² | - |
| 1777735205 | 22.78° C | 37% | 967 hPa | 0 mm | - | 315 W/m² | - |
| 1777732203 | 22.78° C | 39% | 967.3 hPa | 0 mm | - | 463 W/m² | - |
| 1777728903 | 22.78° C | 38% | 967.8 hPa | 0 mm | - | 592 W/m² | - |
| 1777725904 | 22.22° C | 42% | 968.5 hPa | 0 mm | - | 694 W/m² | - |
| 1777725005 | 21.67° C | 41% | 968.7 hPa | 0 mm | - | 720 W/m² | - |
| 1777724833 | 21.67° C | 39% | 968.9 hPa | 0 mm | - | 725 W/m² | - |
| 1777723804 | 21.11° C | 42% | 968.8 hPa | 0 mm | - | 427 W/m² | - |
| 1777722903 | 20.56° C | 42% | 969.1 hPa | 0 mm | - | 420 W/m² | - |
| 1777722305 | 20.56° C | 42% | 969.1 hPa | 0 mm | - | 271 W/m² | - |
| 1777721705 | 20.56° C | 43% | 969.3 hPa | 0 mm | - | 107 W/m² | - |
| 1777721403 | 20° C | 43% | 969.4 hPa | 0 mm | - | 413 W/m² | - |
| 1777720804 | 20° C | 43% | 969.3 hPa | 0 mm | - | 317 W/m² | - |
| 1777719304 | 20° C | 43% | 969.8 hPa | 0 mm | - | 298 W/m² | - |
| 1777718104 | 20° C | 45% | 969.9 hPa | 0 mm | - | 497 W/m² | - |
| 1777717933 | 19.44° C | 44% | 970.1 hPa | 0 mm | - | 760 W/m² | - |
| 1777717203 | 19.44° C | 44% | 970 hPa | 0 mm | - | 754 W/m² | - |
| 1777715104 | 19.44° C | 43% | 970.5 hPa | 0 mm | - | 721 W/m² | - |
| 1777713003 | 19.44° C | 45% | 970.9 hPa | 0 mm | - | 672 W/m² | - |
| 1777712705 | 18.89° C | 43% | 970.8 hPa | 0 mm | - | 664 W/m² | - |
* Rain latest hour (hover to see other rain measurements)
** Current wind speed in m/s (hover to see current wind gust speed)